COSMOS 970 DEB, 64974

Orbit data source: Space-Track

COSMOS 970 DEB, 64974 is space debris in LEO originally from a launch on Wed, 21 Dec 1977 UTC launched from the Tyuratam Missile And Space Complex (TTMTR). Debris objects in space refer to the collection of defunct objects orbiting the Earth. Examples of debris include non-operational satellites, rocket bodies, and fragments generated from explosions, collisions, or faulty payload assembly.

Loading next visibility...
Identifier
64974, 1977-121CK
Orbit
LEO
Country
Flag of CISCIS
Related business
Manufacturer
Unknown
Mission
Spacecraft
Bus & Motor
Unknown
Mass
Unknown
Launch date (UTC)
1977-12-21 (48 years ago)
Launch vehicle
Unknown
Launch site
Tyuratam Missile And Space Complex (TTMTR)
Object type
Payload
Rocket body
Debris
Shape & HBR
Unknown shape, 1.1 m
Radar Cross Section
Medium (>0.1 m² and <1 m²)

Expand to show TLE details & history
Last TLE update: 1 day ago

TLE from 1 day ago
0 COSMOS 970 DEB
1 64974U 77121CK  26170.91623975  .00000279  00000-0  62035-3 0  9993
2 64974  65.9430 344.2993 0087053 187.8628 322.9843 13.41220178614940
Epoch: 2026-06-19T21:59Z
TLE epoch observation values (Epoch: 2026-06-19T21:59:23.114Z)
Latitude
27.00459°
Longitude
-86.76673°
Altitude
1,055.291 km
Speed
7.352 km/s
True Right ascension
10h 04m 52s
True Declination
26° 52' 17"
Sunlit
Object was in daylight at epoch
Visualization orbit readout
Latitude
Unknown
Longitude
Unknown
Altitude
Unknown
Speed
Unknown
Apparent Right ascension
Unknown
Apparent Declination
Unknown
Sunlit
N/A
Visualization observer readout
Local Sidereal Time
08:33:49
Azimuth
Unknown
Elevation
Unknown
Doppler factor
Unknown
Orbital elements
Apogee altitude
1,168.394 km
Perigee altitude
1,038.138 km
Semi-major axis
7,481.403 km
Eccentricity
0.00871
Inclination
65.943°
RAAN
344.2993°
Arg. of periapsis
187.8628°
True anomaly
322.37849°
Mean anomaly
322.9843°
Eccentric anomaly
322.68192°
Mean motion
3.35404 °/min
Orbital period
107.33 mins
BSTAR
0.00062035
Loading maneuver chart data...
Computing Atmospheric mass density...
Loading historical data...
Loading historical data...
Loading historical data...
Loading historical data...
Loading historical data...
Loading historical data...
Loading historical data...

Documentation

Showing up to 5 results
|